TimeCDT,TemperatureF,Dew PointF,Humidity,Sea Level PressureIn,VisibilityMPH,Wind Direction,Wind SpeedMPH,Gust SpeedMPH,PrecipitationIn,Events,Conditions,WindDirDegrees,DateUTC
12:52 AM,63.0,51.1,65,29.96,-9999.0,SSW,8.1,-,N/A,,Unknown,200,2013-09-14 05:52:00
1:52 AM,64.0,51.1,63,29.96,-9999.0,SSW,10.4,-,N/A,,Unknown,200,2013-09-14 06:52:00
2:52 AM,63.0,52.0,67,29.94,-9999.0,SSW,9.2,-,N/A,,Unknown,200,2013-09-14 07:52:00
3:52 AM,63.0,52.0,67,29.91,-9999.0,SSW,12.7,-,N/A,,Unknown,200,2013-09-14 08:52:00
4:52 AM,63.0,52.0,67,29.89,-9999.0,SSW,11.5,-,N/A,,Unknown,200,2013-09-14 09:52:00
5:52 AM,62.1,53.1,72,29.87,-9999.0,South,13.8,-,N/A,,Unknown,190,2013-09-14 10:52:00
6:52 AM,63.0,52.0,67,29.86,-9999.0,SSW,17.3,-,N/A,,Unknown,200,2013-09-14 11:52:00
7:52 AM,62.1,53.1,72,29.85,-9999.0,SSW,12.7,-,N/A,,Unknown,200,2013-09-14 12:52:00
8:52 AM,64.9,52.0,63,29.85,-9999.0,SW,15.0,-,N/A,,Unknown,220,2013-09-14 13:52:00
9:52 AM,66.9,53.1,61,29.84,-9999.0,SW,21.9,26.5,N/A,,Unknown,220,2013-09-14 14:52:00
10:52 AM,69.1,53.1,57,29.83,-9999.0,WSW,16.1,-,N/A,,Unknown,240,2013-09-14 15:52:00
11:52 AM,73.9,54.0,50,29.81,-9999.0,West,18.4,27.6,N/A,,Unknown,260,2013-09-14 16:52:00
12:52 PM,79.0,55.0,44,29.76,-9999.0,WSW,26.5,34.5,N/A,,Unknown,250,2013-09-14 17:52:00
1:52 PM,82.9,57.0,41,29.74,-9999.0,WSW,12.7,26.5,N/A,,Unknown,240,2013-09-14 18:52:00
2:52 PM,87.1,57.9,37,29.71,-9999.0,WSW,21.9,26.5,N/A,,Unknown,240,2013-09-14 19:52:00
3:52 PM,86.0,57.9,38,29.70,-9999.0,WSW,17.3,25.3,N/A,,Unknown,250,2013-09-14 20:52:00
4:52 PM,84.9,59.0,41,29.69,-9999.0,WSW,20.7,27.6,N/A,,Unknown,250,2013-09-14 21:52:00
5:52 PM,84.9,60.1,43,29.69,-9999.0,WSW,15.0,-,N/A,,Unknown,250,2013-09-14 22:52:00
6:52 PM,81.0,60.1,49,29.71,-9999.0,West,5.8,-,N/A,,Unknown,260,2013-09-14 23:52:00
7:52 PM,80.1,61.0,52,29.72,-9999.0,North,9.2,-,N/A,,Unknown,360,2013-09-15 00:52:00
8:52 PM,75.0,60.1,60,29.75,-9999.0,ENE,16.1,21.9,N/A,,Unknown,60,2013-09-15 01:52:00
9:52 PM,70.0,57.9,65,29.81,-9999.0,NE,15.0,25.3,N/A,,Unknown,50,2013-09-15 02:52:00
10:52 PM,63.0,60.1,90,29.86,-9999.0,NE,12.7,-,0.11,,Unknown,50,2013-09-15 03:52:00
11:52 PM,62.1,59.0,90,29.88,-9999.0,ENE,11.5,-,0.04,,Unknown,60,2013-09-15 04:52:00